Temp
57 57 57 57 57 56 54 54 48 57 58 48 47 41 47 48 49 50 49 47 47 45 44 42 36 39 44 48 47 42 42 39 27 34 42 45 41 40 42 28 31 27 25 27
56 56 56 57 57 56 52 52 54 57 56 43 41 44 47 49 47 48 48 47 48 47 44 36 42 39 47 48 46 41 43 38 25 28 34 40 36 41 43 41 34 32 25 29
56 56 56 56 56 55 51 51 45 52 53 51 47 43 44 43 46 48 49 48 48 45 43 44 40 38 45 45 47 47 45 41 35 27 31 39 33 39 41 36 26 30 28 31
57 56 55 55 55 55 50 52 46 46 44 46 47 47 46 44 41 46 48 44 46 41 38 41 40 39 42 45 46 43 43 34 36 41 41 40 40 40 39 31 36 32 35 37
57 56 55 55 55 55 53 47 45 49 48 48 46 43 43 45 45 45 43 41 47 46 40 41 40 43 40 39 41 40 44 34 35 31 40 38 35 39 40 40 41 39 40 40
58 56 55 55 54 55 52 52 51 47 45 46 43 45 46 46 48 46 48 47 44 42 44 46 45 45 45 42 40 41 40 37 32 28 34 34 29 37 39 39 41 42 34 42
57 57 55 55 54 53 52 50 48 46 43 45 48 46 46 45 46 43 47 46 43 42 48 46 45 42 43 44 41 43 39 37 35 28 30 23 38 41 41 40 44 45 44 44
56 57 56 55 55 54 52 51 47 46 40 47 46 46 45 44 43 42 44 45 44 47 44 38 35 34 34 38 39 39 41 38 30 27 27 36 36 37 37 36 37 44 43 44
54 55 55 55 55 54 51 50 48 46 41 43 49 45 44 41 39 39 41 44 46 43 41 37 31 29 34 27 28 37 39 38 32 30 25 26 36 40 43 41 31 44 44 45
54 54 54 55 54 54 50 49 49 45 41 47 46 43 42 46 43 40 40 39 37 42 35 32 28 32 36 30 29 27 28 30 26 27 26 33 41 42 43 28 33 42 42 42
53 53 53 54 54 54 51 49 49 45 43 45 47 48 44 43 43 39 40 39 38 34 32 33 33 31 34 31 36 33 31 27 27 29 27 24 43 40 35 41 42 42 43 43
52 52 53 53 54 54 52 46 50 49 42 44 47 49 48 47 46 44 42 41 40 41 35 35 35 32 30 34 30 37 31 38 34 36 35 43 44 43 44 45 45 44 43 44
52 52 53 54 54 55 51 48 47 44 41 43 41 42 46 48 47 48 42 42 47 42 42 37 36 33 36 30 31 34 37 40 36 38 42 41 44 46 45 45 44 46 46 45
51 52 52 52 53 53 53 46 47 45 43 35 40 45 41 46 46 45 46 44 44 44 42 37 34 32 40 35 35 35 37 39 37 37 42 42 43 44 44 45 44 44 44 44
51 51 51 51 52 53 52 47 46 47 41 36 39 42 43 43 43 42 43 43 41 39 36 34 33 36 36 35 32 30 38 37 36 37 43 43 40 42 46 42 42 42 41 41
50 50 49 50 52 53 44 38 43 46 44 36 32 39 37 39 41 40 40 40 40 40 38 36 38 39 39 31 28 40 45 46 47 42 42 41 40 42 42 43 43 43 42 41
50 49 50 49 52 47 41 39 43 48 46 35 32 34 35 37 37 37 37 39 37 38 36 33 35 36 37 31 31 40 43 45 45 45 41 36 39 38 41 42 42 44 41 41
49 49 49 48 52 48 42 44 47 46 40 36 31 32 30 36 33 31 35 33 34 34 34 33 31 33 33 27 37 43 46 43 40 40 41 39 41 41 40 40 40 38 38 39
48 48 48 44 42 38 40 47 46 43 38 31 31 31 29 35 34 34 33 35 29 34 30 31 33 30 27 33 37 40 39 38 38 39 39 39 37 37 37 37 37 37 37 39
46 42 38 34 38 46 45 40 35 34 33 32 31 34 28 32 32 31 31 32 30 26 30 32 29 28 37 39 41 40 40 40 38 34 33 35 34 35 36 36 38 38 38 37
38 35 34 39 44 39 35 31 30 31 29 32 33 33 28 32 29 30 32 29 30 25 28 27 26 24 31 37 37 40 41 40 38 38 38 38 37 36 36 36 37 36 36 35
38 36 37 36 33 32 29 28 31 29 28 31 30 28 32 31 33 31 30 27 28 23 29 25 20 28 32 34 34 35 38 38 37 38 38 38 39 38 37 36 35 35 35 35
37 34 32 30 30 24 24 22 25 26 28 29 29 28 31 31 32 30 28 25 24 28 23 20 22 29 33 33 34 35 36 37 37 37 38 37 36 37 35 34 35 34 33 34
31 28 24 24 23 25 26 25 25 26 29 29 31 29 29 30 28 29 24 27 26 19 16 17 24 30 33 33 33 34 32 35 35 34 35 34 34 34 34 34 34 33 32 33
27 25 18 22 24 25 26 26 27 28 30 30 28 27 29 26 26 27 25 19 18 21 19 24 26 27 25 30 32 33 29 31 31 31 31 31 31 31 31 33 33 33 32 31
22 21 22 25 23 23 23 22 26 30 31 31 28 23 23 21 24 19 16 17 13 19 23 26 25 24 23 30 31 31 28 22 22 24 28 30 30 30 30 32 31 31 31 29
21 18 26 23 20 20 23 27 27 33 29 22 20 13 15 17 16 14 20 16 22 24 25 25 28 28 29 30 31 31 30 30 28 29 30 30 31 31 29 27 30 29 31 30
MSLP
1021.96 1021.39 1020.93 1020.16 1019.37 1018.27 1017.77 1017.29 1016.72 1016.29 1016.30 1016.91 1016.63 1017.13 1017.14 1017.33 1017.27 1017.31 1016.99 1016.86 1016.40 1015.95 1015.88 1015.79 1016.35 1016.69 1017.17 1017.56 1017.49 1017.14 1017.51 1017.76 1018.39 1018.55 1018.43 1018.31 1018.26 1018.01 1017.83 1018.67 1019.33 1019.48 1019.19 1017.56
1021.97 1021.54 1020.89 1020.36 1019.75 1019.21 1018.89 1017.58 1016.50 1016.25 1016.20 1016.61 1016.99 1017.50 1017.52 1017.44 1017.42 1017.10 1017.01 1016.69 1016.75 1016.72 1016.33 1016.46 1016.44 1016.98 1017.49 1017.69 1017.73 1017.93 1017.82 1017.75 1018.24 1018.55 1018.70 1018.39 1018.29 1017.97 1017.97 1018.27 1018.85 1019.09 1019.07 1017.46
1021.85 1021.59 1021.13 1020.43 1019.78 1019.50 1019.39 1018.04 1016.84 1016.22 1016.08 1016.41 1016.46 1016.80 1017.12 1017.47 1017.64 1017.45 1017.39 1017.05 1016.91 1016.65 1016.55 1016.71 1016.90 1017.33 1017.71 1017.92 1017.92 1018.15 1018.19 1017.72 1017.62 1017.66 1017.44 1017.42 1017.84 1017.76 1018.01 1018.46 1018.97 1018.30 1017.57 1017.07
1021.78 1021.50 1021.21 1020.69 1019.74 1019.11 1019.52 1018.29 1017.86 1017.72 1016.65 1016.40 1016.46 1016.66 1016.80 1017.09 1017.43 1017.55 1017.40 1017.25 1017.17 1016.94 1016.78 1016.71 1016.96 1017.74 1018.14 1018.24 1018.13 1018.21 1018.21 1018.05 1017.68 1017.44 1017.31 1017.44 1017.41 1017.50 1017.74 1018.08 1017.59 1017.57 1016.60 1016.27
1021.80 1021.54 1021.18 1020.78 1020.00 1018.87 1018.76 1019.01 1018.84 1018.03 1017.28 1016.95 1016.48 1016.42 1016.73 1016.78 1017.09 1017.41 1017.36 1017.37 1016.94 1017.27 1017.24 1017.01 1017.09 1017.30 1017.89 1018.01 1018.52 1018.13 1018.07 1018.14 1017.93 1017.70 1017.36 1017.72 1017.68 1017.29 1017.10 1017.05 1016.91 1016.65 1016.09 1015.40
1021.57 1021.56 1021.33 1021.01 1020.60 1019.62 1019.27 1019.14 1019.01 1018.76 1017.79 1017.05 1016.84 1016.41 1016.19 1016.54 1016.90 1017.46 1017.70 1017.67 1017.56 1017.74 1017.79 1017.60 1017.53 1017.62 1017.78 1017.90 1018.10 1018.45 1018.42 1018.27 1018.29 1018.05 1017.80 1017.57 1017.15 1016.03 1016.14 1015.89 1015.29 1015.32 1015.40 1014.43
1021.28 1021.38 1021.36 1021.12 1021.03 1021.01 1020.86 1020.54 1019.96 1019.09 1017.85 1017.37 1016.91 1016.69 1016.85 1017.09 1017.19 1017.46 1017.81 1018.17 1018.33 1018.81 1018.38 1018.16 1018.08 1018.09 1018.11 1018.22 1018.40 1018.59 1018.66 1018.92 1018.76 1018.60 1018.13 1017.34 1015.01 1015.12 1015.19 1015.22 1014.93 1014.76 1014.65 1014.70
1021.28 1020.98 1021.20 1021.19 1021.07 1020.99 1020.87 1020.92 1020.76 1019.73 1018.59 1017.38 1016.94 1017.00 1017.17 1017.49 1017.95 1018.28 1018.19 1018.70 1019.20 1018.94 1019.06 1018.79 1018.38 1018.38 1018.58 1018.43 1018.74 1019.09 1019.09 1019.11 1019.27 1019.13 1018.38 1016.33 1015.35 1015.29 1015.21 1014.92 1014.45 1013.90 1014.21 1014.80
1021.23 1021.19 1020.99 1021.01 1021.06 1020.97 1020.75 1020.90 1021.18 1020.82 1019.67 1017.73 1017.16 1017.30 1017.43 1017.75 1018.05 1018.63 1019.14 1019.68 1019.53 1019.46 1019.39 1019.37 1018.96 1018.34 1018.02 1018.88 1019.47 1019.66 1019.67 1019.65 1019.81 1019.41 1018.83 1017.14 1015.61 1015.49 1015.30 1015.35 1015.03 1014.32 1014.12 1014.52
1021.04 1020.92 1021.00 1020.88 1020.93 1021.04 1021.13 1020.73 1020.85 1021.04 1020.34 1018.49 1017.99 1017.76 1017.68 1017.61 1017.90 1018.54 1019.12 1019.75 1020.00 1019.88 1019.66 1019.72 1019.55 1018.56 1017.84 1018.25 1018.79 1019.57 1019.85 1019.94 1019.62 1019.33 1018.46 1016.66 1015.40 1015.34 1015.53 1015.82 1015.46 1014.72 1014.88 1015.23
1020.86 1020.80 1020.61 1020.44 1020.45 1020.64 1020.95 1020.67 1020.61 1020.77 1020.21 1019.05 1018.69 1018.41 1018.18 1018.15 1018.15 1018.37 1019.23 1019.70 1019.83 1020.16 1019.94 1019.47 1018.80 1018.40 1017.85 1017.86 1017.55 1018.03 1018.40 1018.85 1018.94 1018.84 1018.00 1016.56 1015.21 1015.69 1015.81 1015.24 1015.11 1015.17 1015.18 1015.45
1020.68 1020.36 1020.14 1020.06 1020.07 1020.02 1020.46 1020.63 1020.49 1020.55 1020.61 1019.22 1018.61 1018.33 1018.22 1018.25 1018.21 1018.25 1018.44 1018.58 1018.55 1018.70 1019.07 1018.76 1018.43 1018.31 1018.10 1017.75 1017.54 1017.13 1017.63 1016.90 1017.09 1016.82 1015.74 1014.96 1014.82 1014.74 1014.82 1014.92 1015.07 1015.39 1015.70 1015.94
1020.51 1020.00 1019.63 1019.32 1019.34 1019.52 1019.79 1019.86 1020.05 1020.53 1020.15 1018.86 1018.87 1018.35 1018.03 1018.13 1018.31 1018.22 1018.46 1018.45 1018.15 1018.29 1018.29 1018.56 1018.56 1018.39 1017.72 1017.80 1017.33 1016.96 1016.75 1016.38 1016.42 1016.02 1014.66 1014.74 1014.81 1014.71 1014.87 1015.16 1015.37 1015.35 1015.70 1016.31
1020.23 1019.84 1019.43 1018.79 1018.49 1018.56 1018.85 1019.29 1019.43 1019.80 1019.58 1019.11 1017.78 1017.81 1018.07 1017.91 1018.00 1018.14 1018.18 1018.26 1018.33 1018.50 1018.68 1018.76 1018.72 1018.49 1017.42 1017.45 1017.12 1016.73 1016.44 1016.30 1015.92 1015.54 1014.75 1014.65 1014.66 1014.65 1014.90 1015.39 1015.74 1015.97 1016.34 1016.76
1019.58 1019.25 1018.88 1018.29 1017.73 1017.44 1017.89 1018.20 1018.38 1018.47 1019.57 1019.04 1018.00 1017.68 1017.55 1017.67 1017.83 1017.99 1018.17 1018.24 1018.46 1018.63 1018.82 1018.75 1018.56 1017.81 1017.93 1017.40 1017.34 1016.22 1015.58 1015.21 1015.23 1014.63 1014.43 1014.38 1014.61 1014.56 1014.84 1015.47 1015.98 1016.48 1016.95 1017.43
1019.15 1018.60 1018.25 1017.30 1016.69 1016.87 1018.02 1018.41 1017.91 1017.79 1018.48 1019.23 1018.58 1017.57 1017.56 1018.06 1018.14 1018.00 1017.96 1018.16 1018.40 1018.31 1018.33 1018.15 1017.51 1017.21 1017.48 1017.24 1016.17 1014.10 1013.99 1013.93 1013.80 1014.29 1014.53 1014.87 1015.08 1015.23 1015.39 1015.70 1016.20 1016.79 1017.37 1017.80
1018.72 1017.97 1017.32 1016.45 1015.50 1016.17 1016.83 1017.02 1016.69 1016.98 1017.94 1018.58 1018.59 1017.70 1017.93 1018.22 1018.36 1018.44 1018.53 1018.55 1018.40 1018.35 1018.22 1017.81 1017.56 1017.52 1017.39 1016.47 1014.48 1013.81 1013.48 1013.56 1013.74 1014.09 1014.76 1015.43 1015.66 1015.71 1015.93 1016.25 1016.74 1017.19 1017.70 1018.16
1018.38 1017.65 1017.01 1015.86 1014.63 1015.52 1016.12 1016.34 1016.47 1016.90 1018.23 1018.45 1018.05 1017.70 1018.33 1018.25 1018.45 1018.78 1018.60 1018.65 1018.73 1018.41 1017.90 1017.62 1017.53 1017.55 1017.13 1015.59 1013.47 1013.14 1013.14 1013.39 1013.87 1014.28 1014.68 1015.16 1015.35 1015.87 1016.37 1016.74 1017.26 1017.82 1018.21 1018.56
1017.90 1017.33 1016.83 1016.25 1015.46 1015.69 1015.59 1016.12 1016.76 1017.24 1018.17 1017.79 1017.33 1017.39 1017.83 1018.23 1017.96 1018.31 1018.76 1018.60 1018.46 1018.18 1017.70 1017.20 1017.24 1016.44 1015.23 1013.84 1013.46 1013.25 1013.21 1013.50 1013.86 1014.45 1014.98 1015.45 1015.82 1016.24 1016.68 1017.10 1017.55 1017.94 1018.37 1018.61
1017.74 1017.61 1017.41 1016.70 1016.40 1016.05 1015.72 1016.50 1017.00 1017.70 1017.64 1017.43 1016.73 1016.58 1017.70 1017.93 1017.94 1018.02 1018.40 1018.14 1017.77 1017.66 1017.16 1017.19 1016.57 1014.53 1013.47 1013.12 1013.09 1013.15 1013.24 1013.61 1014.09 1014.72 1015.27 1015.54 1015.98 1016.31 1016.70 1017.08 1017.39 1017.73 1018.19 1018.49
1017.92 1017.82 1017.56 1017.06 1016.49 1016.36 1016.17 1016.15 1016.31 1016.47 1016.75 1016.65 1016.40 1016.20 1016.68 1017.72 1017.55 1017.51 1017.71 1017.49 1017.44 1017.13 1017.04 1017.03 1016.08 1014.49 1013.18 1012.83 1013.07 1013.09 1013.30 1013.71 1014.17 1014.43 1014.75 1015.24 1015.71 1016.16 1016.72 1017.11 1017.42 1017.85 1018.18 1018.56
1018.08 1018.57 1017.92 1017.35 1016.53 1016.21 1016.11 1015.80 1015.66 1015.72 1015.70 1015.83 1015.95 1016.48 1016.49 1017.08 1017.17 1016.96 1017.32 1017.08 1017.45 1017.20 1017.33 1017.30 1016.22 1014.61 1013.90 1013.66 1013.57 1013.61 1013.73 1014.05 1014.61 1014.61 1014.93 1015.33 1015.78 1016.25 1016.70 1017.14 1017.60 1017.97 1018.26 1018.56
1017.96 1018.39 1017.69 1017.17 1016.29 1016.04 1015.81 1015.68 1016.03 1015.98 1016.00 1015.73 1016.08 1016.40 1016.68 1017.06 1017.07 1016.85 1016.97 1016.87 1017.31 1017.49 1017.58 1016.92 1015.63 1015.03 1014.75 1014.55 1014.25 1014.27 1014.25 1014.62 1015.20 1015.44 1015.58 1015.94 1016.16 1016.66 1017.11 1017.39 1017.60 1018.09 1018.26 1018.37
1018.22 1017.72 1017.46 1017.09 1016.45 1016.37 1016.07 1016.31 1016.52 1016.96 1016.58 1016.16 1016.20 1016.47 1016.83 1016.91 1016.79 1016.75 1016.84 1017.27 1017.45 1017.46 1017.24 1016.34 1015.51 1015.10 1014.93 1015.04 1015.19 1014.84 1015.06 1015.43 1016.00 1016.20 1016.14 1016.53 1016.79 1016.93 1017.10 1017.41 1017.52 1017.99 1018.20 1018.18
1017.85 1017.92 1017.65 1017.52 1017.26 1017.17 1017.12 1017.29 1017.21 1017.16 1016.93 1016.55 1016.92 1017.17 1017.28 1017.17 1017.05 1017.09 1017.20 1017.60 1017.30 1016.85 1016.21 1015.93 1015.71 1015.64 1015.44 1015.48 1015.57 1015.78 1015.74 1016.05 1016.42 1016.48 1016.58 1016.76 1017.01 1017.28 1017.22 1017.23 1017.07 1017.37 1017.56 1017.79
1017.80 1017.94 1017.67 1017.67 1017.77 1017.71 1017.76 1017.79 1017.53 1017.46 1017.21 1017.24 1017.53 1017.91 1018.00 1017.98 1017.78 1017.64 1017.50 1017.61 1017.24 1016.55 1015.97 1015.82 1015.90 1016.13 1015.93 1015.85 1015.92 1015.88 1016.03 1016.29 1016.64 1016.75 1016.78 1016.91 1017.13 1017.11 1017.06 1017.00 1016.89 1016.85 1016.94 1017.14
1018.04 1018.10 1017.84 1017.89 1018.01 1017.80 1017.59 1017.47 1017.43 1017.53 1017.85 1018.04 1018.40 1018.73 1018.61 1018.79 1018.60 1018.26 1017.61 1017.52 1016.82 1016.58 1016.42 1016.19 1015.93 1015.98 1016.00 1016.06 1016.03 1016.06 1016.09 1016.51 1016.67 1016.73 1016.78 1016.69 1016.56 1016.53 1016.71 1016.68 1016.22 1016.25 1016.13 1016.09
Wind_Speed
14 15 18 20 22 25 4 3 1 2 2 1 2 2 2 2 5 3 2 3 4 4 3 2 2 3 5 4 4 2 2 2 3 2 3 4 3 4 1 5 3 1 4 8
13 15 16 20 21 17 5 4 1 1 0 0 2 1 2 2 2 2 2 2 1 2 3 1 1 1 2 3 4 5 3 2 3 3 2 2 4 4 3 4 2 4 6 7
11 14 16 18 19 18 3 3 2 1 2 2 2 3 3 3 0 1 2 2 2 2 3 2 0 2 2 1 2 2 3 3 2 6 3 2 4 5 6 5 3 4 6 2
10 12 15 18 20 17 1 2 2 1 2 2 3 3 4 3 3 3 3 3 6 2 1 2 3 3 1 4 4 3 2 2 1 5 2 2 4 6 9 8 9 6 1 5
8 10 12 17 22 23 1 3 4 1 1 1 3 4 6 5 1 4 3 3 5 5 3 2 3 4 4 0 2 2 3 2 1 4 3 3 7 9 9 11 12 11 11 13
9 8 10 12 17 17 3 1 2 2 1 2 1 1 1 3 6 1 4 4 1 4 2 4 4 2 1 3 1 5 2 2 1 3 1 4 8 12 15 6 5 11 9 7
10 7 7 8 10 10 2 3 2 3 2 1 3 1 2 3 3 1 3 2 3 1 1 2 1 2 1 3 2 2 2 2 2 3 1 4 6 4 3 5 8 10 5 2
11 7 6 5 6 8 2 2 3 3 4 3 1 3 3 3 2 1 2 3 2 2 3 2 2 2 2 3 3 3 2 2 2 3 4 9 3 2 3 4 5 6 7 5
11 12 9 6 4 4 1 1 1 3 3 1 3 2 2 3 4 2 3 2 3 2 2 1 3 5 4 3 2 1 3 2 1 2 3 6 1 3 1 2 5 5 2 7
12 10 11 9 6 2 2 1 2 2 3 2 2 3 3 4 1 2 4 4 2 1 3 2 4 4 1 4 6 5 3 2 5 5 4 8 4 6 2 2 5 2 1 2
14 15 13 11 9 7 2 1 4 2 3 5 2 2 3 0 2 4 3 4 2 1 3 4 5 4 4 1 3 6 7 6 5 4 5 10 7 4 5 2 2 2 3 2
15 16 16 15 13 11 7 3 2 2 3 4 1 4 3 3 1 1 4 1 4 5 3 3 2 1 0 3 3 0 4 6 5 8 6 2 8 4 4 1 4 5 5 3
17 18 19 17 16 14 13 3 4 2 3 4 1 6 3 2 4 0 4 2 2 2 2 1 1 5 4 4 6 5 4 3 3 2 4 6 7 6 4 4 3 5 5 6
20 21 22 21 17 16 17 5 4 1 3 4 4 2 3 2 4 3 1 2 2 2 1 2 3 3 2 3 2 3 3 5 5 5 7 6 7 6 7 5 4 6 5 5
20 21 25 26 21 18 11 5 5 5 4 3 3 2 4 4 6 7 5 5 4 3 3 3 5 2 1 2 1 5 6 7 6 5 3 3 2 2 5 8 7 7 6 5
19 20 25 27 18 13 3 2 6 6 6 2 3 2 4 3 4 5 6 4 3 3 4 4 4 2 4 4 5 6 13 8 5 2 3 3 4 4 1 5 7 5 7 6
21 22 24 31 16 9 5 4 2 13 4 4 3 4 2 3 2 2 2 1 2 3 3 4 3 3 4 4 8 4 5 6 5 6 6 2 4 4 3 8 7 7 7 6
20 21 23 29 13 7 3 2 11 9 4 2 3 1 2 5 3 2 2 3 2 2 2 0 2 2 3 7 2 9 11 6 6 7 6 3 6 7 7 7 7 7 6 6
20 16 17 5 3 2 2 12 12 4 2 3 4 2 2 2 2 3 1 2 4 2 4 4 5 4 8 6 8 6 6 6 6 6 7 6 7 8 8 7 8 7 6 6
8 4 2 3 0 5 9 3 3 1 3 3 3 4 2 3 3 3 3 2 3 4 4 3 5 6 5 6 6 3 5 7 9 7 7 7 7 8 7 7 7 7 7 5
0 1 2 2 7 1 1 4 5 4 3 4 2 2 5 2 3 3 3 2 2 3 2 3 3 5 5 3 1 5 3 7 8 5 6 7 8 8 7 7 6 5 5 4
2 1 3 2 2 3 4 3 3 3 4 4 4 2 2 3 2 2 4 3 2 3 3 1 4 4 2 2 1 1 1 6 6 5 8 7 7 7 7 6 6 5 4 3
2 1 4 3 3 4 4 5 3 3 2 3 2 3 3 2 3 2 2 4 3 2 2 4 5 1 2 2 3 4 5 7 6 6 6 6 6 6 5 5 4 4 4 6
3 3 4 2 1 2 3 3 3 2 2 2 2 2 1 1 2 2 1 2 2 3 3 5 3 2 4 5 3 4 4 5 5 6 6 6 6 6 5 5 5 5 6 7
3 2 1 2 0 1 3 2 1 0 3 1 2 2 2 1 2 2 2 2 3 4 4 3 2 1 1 5 4 4 4 5 5 5 5 6 6 5 6 7 6 6 6 7
2 1 1 1 1 2 2 1 1 1 1 1 2 1 1 1 1 2 4 1 4 4 1 1 1 0 2 3 4 5 3 3 3 2 3 4 5 6 7 6 6 7 8 8
3 1 0 1 2 0 1 3 2 3 1 2 2 3 4 2 1 2 2 4 2 0 3 1 1 1 1 3 3 4 4 5 6 5 6 7 7 6 6 9 9 8 10 10
Wind_Direction
348 356 351 354 354 343 292 306 261 148 122 359 317 81 83 2 140 174 207 271 319 339 2 21 100 5 45 2 318 23 62 116 136 97 72 27 329 311 258 123 237 177 151 271
346 348 354 353 356 5 318 291 308 172 152 23 99 237 82 332 171 192 209 183 147 358 333 294 69 114 100 36 344 7 4 232 88 346 353 143 247 197 276 76 43 209 138 264
343 347 351 352 351 356 301 296 334 131 144 227 123 167 186 168 221 288 310 351 265 208 222 139 2 145 157 52 21 340 337 306 198 180 172 125 196 199 203 151 129 228 217 185
338 346 352 349 347 354 305 328 44 60 334 62 10 336 151 164 199 246 209 217 259 236 251 210 185 125 202 205 150 244 263 260 27 280 180 238 233 199 195 199 221 195 291 202
327 341 355 354 347 341 124 353 359 269 290 289 276 135 217 216 120 170 218 250 175 178 256 29 34 140 209 105 185 256 161 270 2 273 162 268 276 249 232 214 233 253 263 275
311 333 357 5 2 344 345 65 183 251 253 171 274 286 160 224 122 115 346 307 177 225 344 35 34 48 47 18 336 210 253 226 127 275 149 297 294 236 219 222 207 210 221 221
307 317 341 8 17 14 292 24 289 287 285 206 262 68 9 276 191 74 94 308 289 7 276 134 232 141 236 230 158 353 213 268 37 265 35 257 236 94 61 230 250 225 256 331
317 300 299 336 17 11 341 332 321 325 285 13 243 211 200 108 97 251 159 80 16 230 270 287 244 217 251 209 91 294 221 271 239 201 216 283 174 211 172 171 285 223 218 189
354 337 304 289 315 8 262 115 314 294 308 314 31 248 194 217 191 150 117 53 315 15 253 252 242 223 216 200 155 18 342 286 158 151 236 247 111 135 45 113 287 345 176 167
337 331 334 298 267 280 302 249 144 273 283 337 343 222 195 190 280 80 129 164 167 305 182 212 228 254 47 200 194 171 169 211 204 233 253 288 150 147 178 164 242 98 58 181
337 326 315 307 255 207 204 244 172 196 258 283 195 259 229 88 244 176 131 102 236 151 214 199 230 213 213 266 163 175 171 162 193 191 219 261 135 87 184 197 93 127 126 134
330 327 316 299 284 208 179 244 168 153 223 265 194 246 255 210 205 148 181 189 157 185 186 231 299 231 181 232 243 30 224 195 190 191 220 129 192 115 133 84 171 174 138 108
322 321 318 303 274 244 184 215 147 181 257 271 216 226 169 130 217 98 178 207 212 232 116 289 221 238 142 197 239 186 251 145 227 39 272 190 204 239 179 191 251 165 137 136
317 316 317 305 277 247 202 183 178 126 301 244 221 127 219 129 159 186 141 118 93 72 117 206 204 208 168 244 263 217 180 125 202 255 279 283 247 227 185 170 109 101 89 124
313 315 318 310 287 231 230 211 187 154 175 287 267 177 184 161 178 174 176 182 160 166 168 201 219 206 149 203 21 230 183 188 184 233 202 172 139 357 161 156 169 158 142 122
307 313 323 313 273 217 102 261 200 186 156 181 250 55 159 160 194 174 171 179 183 187 183 213 228 124 172 222 226 213 196 211 189 232 56 75 101 90 21 149 145 128 147 137
309 312 312 325 245 166 174 198 117 166 121 146 252 242 83 119 116 78 92 24 194 189 211 217 204 182 183 245 233 182 222 217 171 140 116 154 177 198 153 114 110 123 104 107
313 309 314 321 223 139 158 148 137 123 111 195 241 201 167 185 157 159 189 156 179 224 254 17 187 101 210 250 237 215 236 170 146 165 162 143 136 120 116 115 123 129 135 137
313 309 315 311 7 151 143 131 121 77 141 218 173 217 186 166 146 104 182 221 194 166 219 203 166 195 223 218 222 239 172 177 189 163 141 150 141 136 140 147 155 142 141 152
340 341 298 274 269 146 108 73 143 148 212 214 240 127 163 208 162 178 164 200 230 203 212 128 221 251 213 203 202 208 182 167 138 142 171 174 152 157 161 161 160 160 174 177
322 268 258 320 311 38 273 184 184 159 205 186 206 190 138 220 170 157 214 175 201 251 137 213 245 267 218 136 81 168 158 161 175 190 165 155 156 156 162 158 158 155 163 184
145 315 288 271 233 216 225 191 179 211 194 153 158 137 101 149 168 192 171 195 170 235 131 248 268 262 93 113 161 127 205 147 150 130 135 143 142 144 144 146 159 178 193 218
74 257 240 241 151 224 215 177 174 190 189 136 136 150 139 152 209 173 193 190 186 125 198 235 232 233 156 124 115 113 97 115 117 122 125 128 132 138 153 174 189 195 212 235
225 252 235 294 169 338 24 18 28 8 330 99 104 100 121 105 184 110 192 93 139 191 226 235 251 257 184 162 181 141 147 144 163 169 154 163 174 190 197 203 205 211 231 244
189 199 260 261 158 33 43 344 165 351 318 52 68 62 251 168 142 205 145 149 225 211 224 237 247 309 124 162 178 205 182 192 195 186 181 201 210 218 237 234 226 226 241 246
114 58 51 76 311 157 191 208 128 273 9 20 19 110 140 204 334 165 221 227 226 252 214 277 68 303 263 211 202 208 200 192 214 212 212 224 236 239 244 262 243 242 237 243
145 224 250 63 322 57 107 166 141 159 159 233 107 121 198 43 102 269 216 208 245 305 321 344 16 7 282 236 226 211 208 217 224 230 238 241 243 246 249 258 251 240 245 242